Tracking 19570 objects as of 22-Feb-2019
HD Live streaming from Space Station
objects crossing your sky now

COSMOS 407

Track COSMOS 407 now!
10-day predictions
COSMOS 407 is classified as:


NORAD ID: 5174
Int'l Code: 1971-035A
Perigee: 775.5 km
Apogee: 800.5 km
Inclination: 74.0 °
Period: 100.5 minutes
Semi major axis: 7159 km
RCS: 2.2662 m2 (large)
Launch date: April 23, 1971
Source: Commonwealth of Independent States (former USSR) (CIS)
Launch site: PLESETSK MISSILE AND SPACE COMPLEX (PKMTR)
aabbcc
Your satellite tracking list
Your tracking list is empty




NASA's NSSDC Master Catalog

Two Line Element Set (TLE):
1  5174U 71035A   19051.88080558  .00000018  00000-0  15841-4 0  9993
2  5174  74.0456 316.3358 0017461  71.8141 288.4909 14.33253581497718
Source of the keplerian elements: AFSPC